Flag for Norway Weather past 2 weeks in Stavanger, Norway

Now
57 °F

Drizzle. Partly sunny.


Feels Like: 54 °F
Forecast: 55 / 64 °F
Wind: 15 mph from North

Location: Stavanger / Sola

Current Time: Sep 1, 2015 at 7:19:07 PM

Latest Report: Sep 1, 2015 at 6:50 PM


Visibility: N/A

Pressure: 29.77 "Hg

Humidity: 88%

Dew point: 54 °F

Location of StavangerLocation

Historic Weather in Stavanger — Graph

°F

Stavanger temperature yesterday

Maximum temperature yesterday: 64 °F (at 11:20 AM)
Minimum temperature yesterday: 54 °F (at 2:50 AM)
Average temperature yesterday: 59 °F

Past Weeks' High & Low Weather Summary

 TemperatureHumidityPressure
High79 °F (Aug 23, 2:20 PM)100% (Aug 26, 1:50 AM)30.24 "Hg (Aug 26, 1:50 AM)
Low54 °F (Aug 28, 2:50 AM)34% (Aug 19, 4:20 PM)29.47 "Hg (Aug 27, 1:20 PM)
Average65 °F68%29.94 "Hg
* Reported Aug 17 5:20 PM — Sep 1 5:50 PM, Stavanger, Weather by CustomWeather, © 2015

Note: Actual official high and low records may vary slightly from our data, if they occured in-between our weather recording intervals... More about our weather records

Advertising

Stavanger weather history for previous 24 hours

 ConditionsComfort  
Time TempWeatherWind HumidityBarometerVisibility
5:50 PM
Tue, Sep 1
57 °FLight rain. Partly sunny.15 mph88%29.80 "HgN/A
5:20 PM59 °FLight rain. Partly sunny.14 mph82%29.80 "HgN/A
4:50 PM59 °FLight rain. Partly sunny.14 mph82%29.83 "HgN/A
4:20 PM59 °FLight rain. Broken clouds.12 mph82%29.83 "HgN/A
3:50 PM59 °FLight rain. Broken clouds.10 mph82%29.83 "HgN/A
3:20 PM59 °FLight rain. Broken clouds.10 mph82%29.83 "HgN/A
2:50 PM59 °FLight rain. Broken clouds.8 mph82%29.83 "HgN/A
2:20 PM59 °FRain. Broken clouds.8 mph88%29.86 "HgN/A
1:50 PM59 °FLight rain. Partly sunny.8 mph88%29.86 "HgN/A
1:20 PM59 °FLight rain. Scattered clouds.7 mph88%29.86 "HgN/A
12:50 PM59 °FLight rain. Scattered clouds.9 mph88%29.86 "HgN/A
12:20 PM61 °FLight rain. Scattered clouds.7 mph83%29.86 "HgN/A
11:50 AM61 °FDrizzle. Partly sunny.6 mph83%29.86 "HgN/A
11:20 AM59 °FScattered clouds.7 mph88%29.86 "HgN/A
10:50 AM59 °FLight rain. Scattered clouds.8 mph88%29.86 "HgN/A
10:20 AM59 °FLight rain. Broken clouds.3 mph88%29.86 "HgN/A
9:50 AM59 °FDrizzle. Broken clouds.5 mph88%29.86 "HgN/A
9:20 AM57 °FLight rain. Broken clouds.2 mph94%29.86 "HgN/A
8:50 AM57 °FDrizzle. Broken clouds.No wind94%29.86 "HgN/A
8:20 AM57 °FScattered clouds.5 mph94%29.86 "HgN/A
7:50 AM57 °FLight rain. Broken clouds.2 mph94%29.86 "HgN/A
7:20 AM57 °FLight rain. Partly cloudy.1 mph94%29.89 "HgN/A
6:50 AM57 °FLight rain. Partly cloudy.3 mph94%29.89 "HgN/A
4:50 AM57 °FPassing clouds.1 mph94%29.89 "HgN/A
3:50 AM57 °FPassing clouds.2 mph94%29.89 "HgN/A
2:50 AM59 °FPartly cloudy.No wind88%29.89 "HgN/A
1:50 AM59 °FPassing clouds.1 mph88%29.89 "HgN/A
12:50 AM57 °FPassing clouds.1 mph88%29.92 "HgN/A
11:50 PM
Mon, Aug 31
59 °FPartly cloudy.2 mph82%29.92 "HgN/A
11:20 PM59 °FPartly cloudy.No wind82%29.95 "HgN/A
10:50 PM57 °FPartly cloudy.6 mph88%29.95 "HgN/A
10:20 PM59 °FPartly cloudy.3 mph82%29.95 "HgN/A
9:50 PM59 °FPartly cloudy.6 mph82%29.95 "HgN/A
9:20 PM59 °FBroken clouds.6 mph82%29.95 "HgN/A
8:50 PM59 °FBroken clouds.7 mph82%29.98 "HgN/A
8:20 PM61 °FBroken clouds.5 mph77%29.98 "HgN/A
7:50 PM61 °FBroken clouds.5 mph77%29.98 "HgN/A
7:20 PM61 °FBroken clouds.7 mph72%29.98 "HgN/A
Weather by CustomWeather, © 2015

See weather overviewHow to use our weather pages